K4SSL Weather Reports


time (UTC)temp
C
wind
direction
speed
KPH
gust
KPH
rain 1hr
cm
rain 24hr
cm
rain mn
cm
humidity
%
barometer
mb
20260504081912 14 343 11.3 17.7 0.00 0.00 0.00 71 1018.0
20260504081412 14 347 9.7 14.5 0.00 0.00 0.00 70 1018.0
20260504080912 14 343 9.7 14.5 0.00 0.00 0.00 71 1018.0
20260504080412 14 348 11.3 17.7 0.00 0.00 0.00 71 1018.0
20260504070412 15 171 3.2 3.2 0.00 0.00 0.00 70 1018.0
20260504050412 16 152 3.2 3.2 0.00 0.00 0.00 79 1019.0
20260504045912 16 175 3.2 3.2 0.00 0.00 0.00 78 1019.0
20260504045412 16 153 3.2 4.8 0.00 0.00 0.00 78 1019.0
20260504044911 16 175 1.6 3.2 0.00 0.00 0.00 78 1019.0
20260504044412 16 179 1.6 3.2 0.00 0.00 0.00 77 1019.0
20260504043911 16 185 1.6 3.2 0.00 0.00 0.00 77 1019.0
20260504043411 16 179 3.2 3.2 0.00 0.00 0.00 76 1019.0
20260504042911 16 174 1.6 1.6 0.00 0.00 0.00 76 1019.0
20260504042412 16 183 3.2 3.2 0.00 0.00 0.00 75 1019.0
20260504041912 16 173 1.6 1.6 0.00 0.00 0.00 75 1019.0
20260504041412 17 179 1.6 1.6 0.00 0.00 0.00 75 1019.0
20260504040911 17 181 1.6 3.2 0.00 0.00 0.00 74 1019.0
20260504040412 17 130 3.2 4.8 0.00 0.00 0.00 74 1019.0
20260504035911 17 165 1.6 3.2 0.00 0.00 0.00 73 1019.0
20260504035412 17 170 1.6 1.6 0.00 0.00 0.00 73 1019.0
20260504034911 17 162 1.6 1.6 0.00 0.00 0.00 72 1019.0
20260504034412 17 165 1.6 1.6 0.00 0.00 0.00 71 1019.0
20260504033911 17 167 1.6 1.6 0.00 0.00 0.00 71 1019.0
20260504033411 17 173 1.6 4.8 0.00 0.00 0.00 70 1019.0
20260504032912 18 183 1.6 3.2 0.00 0.00 0.00 70 1019.0
20260504032412 18 180 1.6 1.6 0.00 0.00 0.00 69 1019.0
20260504031911 18 184 3.2 4.8 0.00 0.00 0.00 69 1019.0
20260504031411 18 160 4.8 6.4 0.00 0.00 0.00 69 1019.0
20260504030912 18 145 4.8 6.4 0.00 0.00 0.00 68 1019.0
20260504030412 18 166 3.2 6.4 0.00 0.00 0.00 68 1019.0
20260504025914 18 162 3.2 6.4 0.00 0.00 0.00 68 1019.0
20260504025411 18 210 3.2 6.4 0.00 0.00 0.00 67 1019.0
20260504024912 18 177 4.8 8.0 0.00 0.00 0.00 66 1019.0
20260504024412 18 147 3.2 4.8 0.00 0.00 0.00 65 1019.0
20260504023912 18 148 3.2 4.8 0.00 0.00 0.00 64 1019.0
20260504023411 19 144 3.2 6.4 0.00 0.00 0.00 64 1019.0
20260504022912 19 171 1.6 6.4 0.00 0.00 0.00 63 1019.0
20260504022411 19 164 3.2 6.4 0.00 0.00 0.00 62 1019.0
20260504021911 20 200 3.2 6.4 0.00 0.00 0.00 62 1019.0
20260504021412 20 205 3.2 6.4 0.00 0.00 0.00 62 1019.0
20260504020911 20 212 3.2 6.4 0.00 0.00 0.00 62 1019.0
20260504020411 20 168 1.6 3.2 0.00 0.00 0.00 60 1019.0
20260504015912 20 168 1.6 4.8 0.00 0.00 0.00 59 1018.0
20260504015412 20 197 1.6 6.4 0.00 0.00 0.00 59 1018.0
20260504014912 20 226 3.2 8.0 0.00 0.00 0.00 60 1018.0
20260504014411 20 210 1.6 6.4 0.00 0.00 0.00 62 1018.0
20260504013912 20 211 1.6 3.2 0.00 0.00 0.00 62 1018.0
20260504013411 20 228 3.2 6.4 0.00 0.00 0.00 63 1018.0
20260504012911 20 208 1.6 4.8 0.00 0.00 0.00 64 1018.0
20260504012411 20 196 1.6 4.8 0.00 0.00 0.00 63 1018.0
20260504011911 20 219 3.2 6.4 0.00 0.00 0.00 62 1018.0
20260504011411 20 165 1.6 3.2 0.00 0.00 0.00 63 1018.0
20260504010912 20 145 1.6 4.8 0.00 0.00 0.00 62 1018.0
20260504010412 20 215 3.2 4.8 0.00 0.00 0.00 62 1018.0
20260504005912 20 221 3.2 4.8 0.00 0.00 0.00 62 1018.0
20260504005412 21 209 1.6 3.2 0.00 0.00 0.00 62 1018.0
20260504004911 21 193 3.2 4.8 0.00 0.00 0.00 61 1018.0
20260504004411 21 237 3.2 4.8 0.00 0.00 0.00 61 1018.0
20260504003912 21 233 3.2 4.8 0.00 0.00 0.00 61 1018.0
20260504003411 21 240 3.2 6.4 0.00 0.00 0.00 61 1018.0
20260504002911 21 219 1.6 4.8 0.00 0.00 0.00 62 1018.0
20260504002411 21 236 3.2 6.4 0.00 0.00 0.00 61 1018.0
20260504001911 21 242 4.8 6.4 0.00 0.00 0.00 60 1018.0
20260504001411 21 238 3.2 4.8 0.00 0.00 0.00 60 1018.0
20260504000911 21 236 3.2 6.4 0.00 0.00 0.00 60 1018.0
20260504000411 21 243 3.2 4.8 0.00 0.00 0.00 59 1018.0
20260503235911 21 246 3.2 11.3 0.00 0.00 0.00 61 1018.0
20260503235411 21 242 4.8 8.0 0.00 0.00 0.00 60 1018.0
20260503234911 22 253 3.2 4.8 0.00 0.00 0.00 59 1018.0
20260503234412 22 193 0.0 0.0 0.00 0.00 0.00 58 1017.0
20260503233911 22 178 0.0 0.0 0.00 0.00 0.00 57 1017.0
20260503233411 22 232 1.6 3.2 0.00 0.00 0.00 55 1017.0
20260503232911 22 126 1.6 3.2 0.00 0.00 0.00 56 1017.0
20260503232411 22 92 1.6 3.2 0.00 0.00 0.00 56 1017.0
20260503231911 22 122 0.0 3.2 0.00 0.00 0.00 56 1017.0
20260503231411 22 283 0.0 1.6 0.00 0.00 0.00 56 1017.0
20260503230912 22 80 3.2 6.4 0.00 0.00 0.00 56 1017.0
20260503230411 22 151 0.0 3.2 0.00 0.00 0.00 54 1017.0
20260503225912 22 130 3.2 4.8 0.00 0.00 0.00 55 1017.0
20260503225411 22 107 1.6 3.2 0.00 0.00 0.00 53 1017.0
20260503224912 22 106 1.6 3.2 0.00 0.00 0.00 53 1017.0
20260503224411 22 136 1.6 3.2 0.00 0.00 0.00 52 1017.0
20260503223912 23 133 1.6 4.8 0.00 0.00 0.00 52 1017.0
20260503223411 23 97 0.0 3.2 0.00 0.00 0.00 52 1017.0
20260503222911 23 162 0.0 1.6 0.00 0.00 0.00 51 1017.0
20260503222411 23 266 3.2 6.4 0.00 0.00 0.00 51 1017.0
20260503221911 23 121 0.0 3.2 0.00 0.00 0.00 52 1017.0
20260503221412 23 120 3.2 6.4 0.00 0.00 0.00 52 1017.0
20260503220912 23 247 1.6 3.2 0.00 0.00 0.00 51 1017.0
20260503220411 23 243 0.0 3.2 0.00 0.00 0.00 51 1017.0
20260503215911 23 257 3.2 6.4 0.00 0.00 0.00 50 1018.0
20260503215411 23 105 1.6 3.2 0.00 0.00 0.00 50 1018.0
20260503214911 23 172 0.0 3.2 0.00 0.00 0.00 49 1018.0
20260503214411 23 208 1.6 3.2 0.00 0.00 0.00 48 1018.0
20260503213912 23 250 0.0 3.2 0.00 0.00 0.00 49 1018.0
20260503213412 23 201 1.6 4.8 0.00 0.00 0.00 49 1018.0
20260503212913 23 110 1.6 3.2 0.00 0.00 0.00 49 1018.0
20260503212411 23 111 1.6 3.2 0.00 0.00 0.00 50 1018.0
20260503211912 23 249 3.2 6.4 0.00 0.00 0.00 49 1018.0
20260503211412 23 108 1.6 6.4 0.00 0.00 0.00 49 1018.0
20260503210911 23 104 0.0 4.8 0.00 0.00 0.00 49 1018.0
20260503210413 23 93 4.8 9.7 0.00 0.00 0.00 48 1018.0
20260503205912 23 234 1.6 4.8 0.00 0.00 0.00 48 1018.0
20260503205413 23 86 1.6 4.8 0.00 0.00 0.00 49 1018.0
20260503204911 24 259 3.2 6.4 0.00 0.00 0.00 47 1018.0
20260503204411 24 268 1.6 4.8 0.00 0.00 0.00 47 1018.0
20260503203912 24 137 3.2 9.7 0.00 0.00 0.00 46 1018.0
20260503203411 24 261 3.2 9.7 0.00 0.00 0.00 45 1018.0
20260503202911 25 249 0.0 3.2 0.00 0.00 0.00 47 1018.0
20260503202411 25 73 1.6 4.8 0.00 0.00 0.00 48 1018.0
20260503201911 25 133 0.0 3.2 0.00 0.00 0.00 47 1018.0
20260503201414 25 236 1.6 3.2 0.00 0.00 0.00 47 1018.0
20260503200911 25 73 0.0 3.2 0.00 0.00 0.00 46 1019.0
20260503200411 25 251 0.0 0.0 0.00 0.00 0.00 46 1019.0
20260503195912 25 99 1.6 6.4 0.00 0.00 0.00 46 1019.0
20260503195412 25 96 0.0 1.6 0.00 0.00 0.00 45 1019.0
20260503194911 25 208 1.6 6.4 0.00 0.00 0.00 43 1019.0
20260503194411 25 124 3.2 6.4 0.00 0.00 0.00 43 1019.0
20260503193912 25 83 1.6 3.2 0.00 0.00 0.00 44 1019.0
20260503193411 25 228 1.6 4.8 0.00 0.00 0.00 44 1019.0
20260503192911 25 233 0.0 3.2 0.00 0.00 0.00 44 1019.0
20260503192411 25 213 1.6 4.8 0.00 0.00 0.00 42 1020.0
20260503191912 26 88 4.8 8.0 0.00 0.00 0.00 36 1019.0
20260503191411 26 80 3.2 9.7 0.00 0.00 0.00 37 1020.0
20260503190911 26 243 4.8 9.7 0.00 0.00 0.00 35 1020.0
20260503190412 26 109 1.6 6.4 0.00 0.00 0.00 36 1020.0
20260503185912 26 231 6.4 9.7 0.00 0.00 0.00 35 1020.0
20260503185411 26 105 3.2 11.3 0.00 0.00 0.00 37 1020.0
20260503184911 26 79 3.2 6.4 0.00 0.00 0.00 37 1020.0
20260503184411 26 59 0.0 3.2 0.00 0.00 0.00 37 1020.0
20260503183912 26 79 1.6 4.8 0.00 0.00 0.00 38 1020.0
20260503183411 25 149 0.0 3.2 0.00 0.00 0.00 37 1020.0
20260503182912 25 203 1.6 4.8 0.00 0.00 0.00 37 1020.0
20260503182411 25 239 3.2 8.0 0.00 0.00 0.00 37 1020.0
20260503181911 25 102 3.2 6.4 0.00 0.00 0.00 37 1020.0
20260503181411 25 117 3.2 6.4 0.00 0.00 0.00 37 1020.0
20260503180912 25 93 3.2 9.7 0.00 0.00 0.00 37 1020.0
20260503180412 25 102 1.6 4.8 0.00 0.00 0.00 37 1020.0
20260503175911 25 114 3.2 8.0 0.00 0.00 0.00 38 1020.0
20260503175411 25 240 4.8 9.7 0.00 0.00 0.00 39 1020.0
20260503174911 25 66 1.6 6.4 0.00 0.00 0.00 40 1020.0
20260503174412 25 170 1.6 6.4 0.00 0.00 0.00 38 1020.0
20260503173912 24 54 1.6 6.4 0.00 0.00 0.00 40 1020.0
20260503173412 25 80 6.4 9.7 0.00 0.00 0.00 38 1020.0
20260503172912 24 97 1.6 4.8 0.00 0.00 0.00 39 1020.0
20260503172411 25 13 3.2 6.4 0.00 0.00 0.00 39 1020.0
20260503171912 25 81 4.8 11.3 0.00 0.00 0.00 39 1020.0
20260503171412 24 101 3.2 8.0 0.00 0.00 0.00 39 1021.0
20260503170912 24 84 6.4 9.7 0.00 0.00 0.00 39 1021.0
20260503170411 24 77 1.6 4.8 0.00 0.00 0.00 39 1021.0
20260503150912 23 0 3.2 6.4 0.00 0.00 0.00 42 1022.0
20260503150412 23 104 3.2 9.7 0.00 0.00 0.00 43 1022.0
20260503131412 16 153 3.2 4.8 0.00 0.00 0.00 63 1021.0
20260503130911 16 135 3.2 8.0 0.00 0.00 0.00 65 1021.0
20260503130411 16 59 6.4 11.3 0.00 0.00 0.00 64 1021.0
20260503110411 10 6 3.2 4.8 0.00 0.00 0.00 81 1020.0